Weather History for KRRL - March, 2014

Change the Weather History Date:

Wednesday, March 19, 2014

  Actual Average Record
Temperature  
Mean Temperature 32 °F -  
Max Temperature 35 °F 39 °F 73 °F (2012)
Min Temperature 29 °F 18 °F -17 °F (1923)
Degree Days  
Heating Degree Days 33    
Moisture  
Dew Point 26 °F    
Average Humidity 82    
Maximum Humidity 94    
Minimum Humidity 67    
Precipitation  
Precipitation 0.00 in - - ()
Sea Level Pressure  
Sea Level Pressure 29.74 in    
Wind  
Wind Speed 7 mph (NNW)    
Max Wind Speed 15 mph    
Max Gust Speed 22 mph    
Visibility 7 miles    
Events Snow    
Averages and records for this station are not official NWS values.
T = Trace of Precipitation, MM = Missing Value Source: NWS Daily Summary

Daily Weather History Graph

Daily Weather History Graph

Search for Another Location

Airport or City:

Trip Planner

Search our weather history database for the weather conditions in past years. The results will help you decide how hot, cold, wet, or windy it might be!

Date:

Astronomy

Mar. 19, 2014 Rise Set
Actual Time 7:03 AM CDT 7:10 PM CDT
Civil Twilight 6:34 AM CDT 7:39 PM CDT
Nautical Twilight 6:00 AM CDT 8:14 PM CDT
Astronomical Twilight 5:24 AM CDT 8:49 PM CDT
Moon 10:38 PM CDT (3/19) 8:21 AM CDT (3/19)
Length of Visible Light 13h 05m
Length of Day
12h 06m
Waning Gibbous, 91% of the Moon is Illuminated
Mar 19
Waning Gibbous
Mar 23
Last Quarter
Mar 30
New
Apr 7
First Quarter
Apr 15
Full

Hourly Weather History & Observations

Time (CDT) Temp. Windchill Dew Point Humidity Pressure Visibility Wind Dir Wind Speed Gust Speed Precip Events Conditions
12:15 AM 32.0 °F 25.6 °F 27.9 °F 85% 29.77 in 10.0 mi East 6.9 mph - N/A   Overcast
12:35 AM 32.0 °F 25.6 °F 27.5 °F 83% 29.76 in 10.0 mi ENE 6.9 mph - N/A   Overcast
12:55 AM 31.8 °F 26.2 °F 27.9 °F 85% 29.74 in 10.0 mi East 5.8 mph - N/A   Overcast
1:15 AM 31.6 °F 26.0 °F 27.5 °F 85% 29.74 in 10.0 mi ENE 5.8 mph - N/A   Overcast
1:35 AM 31.6 °F 27.0 °F 27.3 °F 84% 29.73 in 10.0 mi ENE 4.6 mph - N/A   Overcast
1:55 AM 31.8 °F 28.5 °F 27.0 °F 82% 29.73 in 10.0 mi ENE 3.5 mph - N/A   Overcast
2:15 AM 31.5 °F 28.1 °F 27.1 °F 84% 29.72 in 5.0 mi ENE 3.5 mph - N/A Snow Light Snow
2:35 AM 31.1 °F 25.4 °F 27.3 °F 86% 29.71 in 4.0 mi East 5.8 mph - N/A Snow Light Snow
2:55 AM 30.7 °F 23.3 °F 27.5 °F 88% 29.69 in 3.0 mi ESE 8.1 mph - N/A Snow Light Snow
3:15 AM 30.6 °F 24.7 °F 27.1 °F 87% 29.68 in 7.0 mi East 5.8 mph - N/A   Overcast
3:35 AM 30.7 °F 24.9 °F 27.0 °F 86% 29.68 in 10.0 mi East 5.8 mph - N/A   Overcast
3:55 AM 30.6 °F 25.8 °F 27.1 °F 87% 29.67 in 5.0 mi East 4.6 mph - N/A Snow Light Snow
4:15 AM 30.2 °F 25.4 °F 27.7 °F 90% 29.67 in 3.0 mi East 4.6 mph - N/A Snow Light Snow
4:35 AM 30.2 °F 25.4 °F 27.9 °F 91% 29.66 in 5.0 mi East 4.6 mph - N/A Snow Light Snow
4:55 AM 30.2 °F - 28.0 °F 92% 29.66 in 7.0 mi Calm Calm - N/A   Overcast
5:15 AM 29.8 °F 24.9 °F 27.9 °F 92% 29.66 in 7.0 mi North 4.6 mph - N/A Snow Light Snow
5:35 AM 30.2 °F - 28.0 °F 92% 29.66 in 5.0 mi Calm Calm - N/A Snow Light Snow
5:55 AM 30.2 °F 26.7 °F 28.2 °F 92% 29.67 in 7.0 mi North 3.5 mph - N/A   Overcast
6:15 AM 30.2 °F 26.7 °F 28.0 °F 92% 29.67 in 7.0 mi North 3.5 mph - N/A Snow Light Snow
6:35 AM 30.6 °F 23.8 °F 28.6 °F 92% 29.67 in 2.5 mi North 6.9 mph - N/A Snow Light Snow
6:55 AM 30.2 °F 23.4 °F 28.6 °F 94% 29.67 in 4.0 mi North 6.9 mph - N/A Snow Light Snow
7:15 AM 30.0 °F 23.2 °F 28.4 °F 94% 29.68 in 4.0 mi North 6.9 mph - N/A Snow Light Snow
7:35 AM 29.8 °F 23.9 °F 28.0 °F 93% 29.67 in 3.0 mi North 5.8 mph - N/A Snow Light Snow
7:55 AM 30.0 °F 22.4 °F 28.0 °F 92% 29.67 in 3.0 mi North 8.1 mph - N/A Snow Light Snow
8:15 AM 30.2 °F 21.9 °F 28.0 °F 92% 29.67 in 2.5 mi NNE 9.2 mph - N/A Snow Light Snow
8:35 AM 30.7 °F 24.1 °F 28.2 °F 90% 29.67 in 2.5 mi North 6.9 mph - N/A Snow Light Snow
8:55 AM 31.1 °F 23.1 °F 28.2 °F 89% 29.67 in 4.0 mi North 9.2 mph - N/A Snow Light Snow
9:15 AM 31.1 °F 25.4 °F 28.9 °F 92% 29.67 in 2.0 mi North 5.8 mph - N/A Snow Light Snow
9:35 AM 31.6 °F 25.1 °F 28.9 °F 90% 29.67 in 3.0 mi North 6.9 mph - N/A Snow Light Snow
9:55 AM 32.0 °F 24.8 °F 28.9 °F 88% 29.67 in 2.5 mi North 8.1 mph - N/A Snow Light Snow
10:15 AM 32.2 °F 25.0 °F 28.9 °F 88% 29.67 in 3.0 mi North 8.1 mph - N/A Snow Light Snow
10:35 AM 32.9 °F 25.9 °F 28.9 °F 85% 29.68 in 5.0 mi North 8.1 mph - N/A   Overcast
10:55 AM 33.8 °F 26.4 °F 29.1 °F 83% 29.68 in 5.0 mi North 9.2 mph - N/A   Haze
11:15 AM 34.2 °F 28.2 °F 29.3 °F 82% 29.68 in 4.0 mi NNW 6.9 mph - N/A   Haze
11:35 AM 34.2 °F 27.5 °F 29.7 °F 84% 29.68 in 4.0 mi NNW 8.1 mph - N/A   Overcast
11:55 AM 34.7 °F 26.4 °F 29.3 °F 81% 29.68 in 5.0 mi North 11.5 mph - N/A   Haze
12:15 PM 34.9 °F 25.3 °F 29.3 °F 80% 29.69 in 7.0 mi North 15.0 mph - N/A   Overcast
12:35 PM 35.1 °F 27.4 °F 29.1 °F 79% 29.69 in 10.0 mi NNW 10.4 mph - N/A   Overcast
12:55 PM 35.4 °F 27.8 °F 29.1 °F 78% 29.69 in 10.0 mi NW 10.4 mph - N/A   Overcast
1:15 PM 35.1 °F 27.9 °F 28.9 °F 78% 29.69 in 5.0 mi NNW 9.2 mph - N/A Snow Light Snow
1:35 PM 34.2 °F 27.5 °F 29.1 °F 82% 29.69 in 5.0 mi NW 8.1 mph - N/A   Haze
1:55 PM 34.2 °F 25.7 °F 28.2 °F 79% 29.69 in 10.0 mi NW 11.5 mph - N/A   Overcast
2:15 PM 33.8 °F 24.8 °F 27.9 °F 79% 29.70 in 7.0 mi NW 12.7 mph 17.3 mph N/A Snow Light Snow
2:35 PM 32.9 °F 23.7 °F 27.3 °F 80% 29.71 in 3.0 mi NW 12.7 mph 19.6 mph N/A Snow Light Snow
2:55 PM 32.4 °F 26.0 °F 27.7 °F 83% 29.72 in 2.0 mi NW 6.9 mph - N/A Snow Light Snow
3:15 PM 32.5 °F 24.8 °F 27.1 °F 80% 29.71 in 4.0 mi NW 9.2 mph 16.1 mph N/A Snow Light Snow
3:35 PM 32.5 °F 23.2 °F 25.7 °F 76% 29.72 in 7.0 mi NW 12.7 mph 20.7 mph N/A Snow Light Snow
3:55 PM 32.2 °F 23.2 °F 24.8 °F 74% 29.73 in 10.0 mi NNW 11.5 mph 19.6 mph N/A Snow Light Snow
4:15 PM 32.0 °F 21.6 °F 24.8 °F 75% 29.74 in 10.0 mi NW 15.0 mph 18.4 mph N/A   Overcast
4:35 PM 31.8 °F 21.4 °F 24.4 °F 74% 29.75 in 10.0 mi NNW 15.0 mph 18.4 mph N/A   Overcast
4:55 PM 31.8 °F 21.4 °F 24.6 °F 75% 29.76 in 10.0 mi NW 15.0 mph 18.4 mph N/A Snow Light Snow
5:15 PM 31.1 °F 20.9 °F 24.4 °F 76% 29.77 in 10.0 mi NNW 13.8 mph 21.9 mph N/A   Overcast
5:35 PM 30.9 °F 21.2 °F 24.4 °F 77% 29.78 in 10.0 mi NW 12.7 mph 18.4 mph N/A   Overcast
5:55 PM 30.7 °F 22.0 °F 24.4 °F 77% 29.79 in 10.0 mi NW 10.4 mph 16.1 mph N/A   Overcast
6:15 PM 30.7 °F 21.4 °F 24.6 °F 78% 29.80 in 10.0 mi NW 11.5 mph - N/A   Overcast
6:35 PM 30.9 °F 21.7 °F 23.9 °F 75% 29.81 in 10.0 mi NW 11.5 mph - N/A   Overcast
6:55 PM 30.9 °F 22.2 °F 23.5 °F 74% 29.82 in 10.0 mi NW 10.4 mph - N/A   Overcast
7:15 PM 30.7 °F 20.0 °F 23.9 °F 76% 29.82 in 10.0 mi NW 15.0 mph 18.4 mph N/A   Overcast
7:35 PM 30.7 °F 23.3 °F 23.5 °F 75% 29.83 in 10.0 mi NW 8.1 mph - N/A   Overcast
7:55 PM 30.7 °F 20.9 °F 23.0 °F 73% 29.83 in 10.0 mi NW 12.7 mph 16.1 mph N/A   Overcast
8:15 PM 30.6 °F 21.2 °F 23.4 °F 75% 29.84 in 10.0 mi NW 11.5 mph 16.1 mph N/A   Overcast
8:35 PM 30.2 °F 21.9 °F 23.7 °F 77% 29.84 in 10.0 mi WNW 9.2 mph - N/A   Overcast
8:55 PM 30.2 °F 21.3 °F 24.1 °F 78% 29.85 in 10.0 mi WNW 10.4 mph - N/A Snow Light Snow
9:15 PM 30.2 °F 23.4 °F 24.4 °F 79% 29.85 in 7.0 mi WNW 6.9 mph - N/A Snow Light Snow
9:35 PM 30.2 °F 21.9 °F 24.6 °F 80% 29.85 in 10.0 mi WNW 9.2 mph - N/A Snow Light Snow
9:55 PM 30.2 °F 21.3 °F 24.3 °F 79% 29.86 in 10.0 mi WNW 10.4 mph - N/A   Overcast
10:15 PM 30.2 °F 19.8 °F 23.4 °F 76% 29.86 in 10.0 mi NW 13.8 mph 18.4 mph N/A   Overcast
10:35 PM 30.2 °F 21.3 °F 22.5 °F 73% 29.86 in 10.0 mi WNW 10.4 mph - N/A   Overcast
10:55 PM 29.8 °F 23.9 °F 21.6 °F 71% 29.86 in 10.0 mi NW 5.8 mph - N/A   Overcast
11:15 PM 29.3 °F 21.5 °F 20.8 °F 71% 29.87 in 10.0 mi WNW 8.1 mph - N/A   Overcast
11:35 PM 29.3 °F 22.3 °F 20.1 °F 69% 29.87 in 10.0 mi WNW 6.9 mph - N/A   Overcast
11:55 PM 29.1 °F 21.3 °F 19.4 °F 67% 29.87 in 10.0 mi NW 8.1 mph - N/A   Overcast